Location: Ellerstadt
(49.4644°N, 8.2615°E)
Time: 10:23:39
(UTC+00:00)

SAR-Lupe-4 - Pass Details

Date: 03 March 2021
Orbit: 481 x 485 km, 98.2° (Epoch: 26 March)

Event Time Altitude Azimuth Distance (km) Brightness Sun altitude
Rises 18:04:36 0° 19° (NNE) 2,556 7.0 -9.1°
Reaches altitude 10° 18:06:44 10° 26° (NNE) 1,671 6.0 -9.5°
Maximum altitude 18:10:11 45° 100° (E) 672 3.8 -10.1°
Drops below altitude 10° 18:13:37 10° 174° (S) 1,658 6.2 -10.6°
Sets 18:15:44 0° 181° (S) 2,533 7.2 -11.0°
